[[{"header":{"parameterUnit":"m.s-1","parameterCategory":1,"la1":30.2991,"la2":30.254,"lo1":-89.0895,"lo2":-89.0444,"dy":0.0017,"dx":0.0017,"nx":28,"ny":28,"refTime":"2024-05-06T21:00:00:Z","depth":0,"parameterNumber":2,"parameterNumberName":"U-component_of_WINDS"},"data":[0,0,0,0,0,0,0,0,0,0,0,0,0,0,0,0,0,0,0,0,0,0,0,0,0,0,0,0,0,0,0,0,0,0,0,0,0,0,0,0,0,0,0,0,0,0,0,0,0,0,0,0,0,0,0,0,0,0,-1.5292,-1.5292,0,-1.5312,-1.5313,-1.5313,-1.534,-1.534,-1.534,-1.5341,-1.5361,-1.5361,-1.5361,0,0,0,0,0,0,0,0,0,0,0,0,0,-1.5276,-1.5276,-1.5292,-1.5292,-1.5293,-1.5312,-1.5313,-1.5313,-1.534,-1.534,-1.5341,-1.5341,-1.5361,-1.5361,-1.5361,0,0,0,0,0,0,0,0,0,0,0,0,0,-1.5288,-1.5276,-1.5292,-1.5308,-1.531,-1.5312,-1.5313,-1.5313,-1.5339,-1.534,-1.5341,-1.5341,-1.5361,-1.5361,-1.5361,-1.5349,0,0,-1.5361,-1.5361,0,0,0,0,0,0,0,0,-1.5288,-1.5289,-1.5306,-1.5307,-1.5309,-1.5324,-1.5314,-1.5325,-1.5339,-1.5328,-1.5341,-1.5342,-1.5348,-1.5349,-1.5351,-1.5349,-1.535,-1.5361,-1.5361,-1.5362,-1.5362,0,0,0,0,0,0,0,-1.5287,-1.5288,-1.53,-1.5306,-1.5308,-1.5314,-1.5317,-1.5316,-1.5334,-1.5329,-1.5331,-1.5333,-1.5349,-1.5351,-1.5352,-1.5351,-1.5361,-1.5361,-1.5362,-1.5362,-1.5339,-1.5339,0,0,0,0,0,0,-1.5283,-1.5287,-1.5299,-1.5301,-1.53,-1.5314,-1.5317,-1.5319,-1.5334,-1.5337,-1.5333,-1.5334,-1.5351,-1.5352,-1.5353,-1.5339,-1.5362,-1.5362,-1.5362,-1.534,-1.5339,-1.5338,0,0,0,0,0,0,-1.5283,-1.5284,-1.5299,-1.5295,-1.5297,-1.5314,-1.5315,-1.5319,-1.5321,-1.5337,-1.534,-1.5332,-1.5351,-1.5353,-1.5349,-1.534,-1.5362,-1.5362,-1.5341,-1.534,-1.5339,-1.5311,0,0,0,0,0,0,-1.5282,-1.5284,-1.528,-1.5294,-1.5297,-1.5295,-1.5315,-1.5319,-1.5321,-1.5324,-1.5337,-1.5339,-1.5352,-1.5349,-1.535,-1.5341,-1.5362,-1.5342,-1.534,-1.5339,-1.5313,-1.5309,-1.5306,0,0,0,0,0,-1.5282,-1.5271,-1.5279,-1.528,-1.5292,-1.5294,-1.5296,-1.531,-1.532,-1.5316,-1.5326,-1.5339,-1.5341,-1.5348,-1.5349,-1.534,-1.5342,-1.5341,-1.5339,-1.5314,-1.531,-1.5306,0,0,0,0,0,0,-1.5254,-1.5273,-1.5282,-1.5276,-1.5283,-1.5299,-1.5294,-1.5305,-1.531,-1.5312,-1.533,-1.5332,-1.5327,-1.5334,-1.5341,-1.5329,-1.5344,-1.5342,-1.5325,-1.5321,-1.5317,-1.5315,-1.5362,0,0,0,0,0,-1.5247,-1.5248,-1.5265,-1.5257,-1.5261,-1.5276,-1.5278,-1.5289,-1.5297,-1.53,-1.531,-1.5317,-1.532,-1.5321,-1.5324,-1.5315,-1.5317,-1.5309,-1.5306,-1.5303,-1.5301,-1.5296,-1.5292,-1.5333,-1.5333,-1.5333,0,0,-1.5233,-1.5244,-1.5243,-1.5252,-1.5259,-1.5259,-1.5279,-1.5278,-1.5278,-1.53,-1.5297,-1.5305,-1.5314,-1.5308,-1.5306,-1.5313,-1.529,-1.5301,-1.5298,-1.5298,-1.5294,-1.529,-1.5286,-1.5332,-1.5332,-1.5333,0,0,-1.5207,-1.5215,-1.521,-1.5217,-1.5227,-1.5238,-1.5237,-1.525,-1.5256,-1.5254,-1.5271,-1.5271,-1.5275,-1.5281,-1.5284,-1.5261,-1.5273,-1.5262,-1.5243,-1.5238,-1.5235,-1.5232,-1.5223,-1.522,-1.526,-1.526,-1.526,0,-1.5188,-1.5188,-1.5205,-1.5204,-1.5207,-1.5228,-1.5222,-1.5228,-1.5238,-1.524,-1.5249,-1.5254,-1.5262,-1.5257,-1.5251,-1.5254,-1.5252,-1.5259,-1.5234,-1.5232,-1.5229,-1.5221,-1.5217,-1.5258,-1.5259,-1.5259,-1.5259,0,-1.5164,-1.5164,-1.5159,-1.5169,-1.5172,-1.5168,-1.5184,-1.5185,-1.5196,-1.5206,-1.5203,-1.5214,-1.5219,-1.5219,-1.5229,-1.5215,-1.522,-1.5231,-1.5246,-1.5223,-1.5216,-1.5213,-1.5256,-1.5257,-1.5257,-1.5258,0,0,-1.5119,-1.514,-1.5137,-1.5142,-1.5156,-1.5156,-1.5153,-1.5159,-1.5159,-1.5166,-1.5164,-1.5167,-1.5178,-1.5182,-1.5193,-1.5189,-1.5169,-1.5201,-1.5202,-1.5194,-1.5153,-1.5144,-1.514,-1.5178,-1.5177,-1.5177,-1.5152,0,-1.5095,-1.5091,-1.5107,-1.5099,-1.5099,-1.5119,-1.5117,-1.5125,-1.5134,-1.5136,-1.5146,-1.5148,-1.5162,-1.5165,-1.5162,-1.5172,-1.5161,-1.5174,-1.5175,-1.5175,-1.517,-1.5136,-1.5125,-1.5102,-1.5149,-1.5149,-1.5149,0,-1.5065,-1.5071,-1.5063,-1.5077,-1.5078,-1.5076,-1.5082,-1.5083,-1.5093,-1.51,-1.5105,-1.5118,-1.5116,-1.5131,-1.5129,-1.5137,-1.5139,-1.5144,-1.5144,-1.5143,-1.5159,-1.5133,-1.5095,-1.509,-1.5144,-1.5145,-1.5145,0,-1.5032,-1.5038,-1.5034,-1.5038,-1.5055,-1.5052,-1.5059,-1.5069,-1.5072,-1.5077,-1.5079,-1.5084,-1.5087,-1.5091,-1.5105,-1.5115,-1.51,-1.5117,-1.5105,-1.5105,-1.51,-1.51,-1.506,-1.5103,-1.5103,-1.5103,-1.5103,0,-1.5002,-1.4997,-1.502,-1.5017,-1.5011,-1.5029,-1.5023,-1.5032,-1.5041,-1.504,-1.5058,-1.5057,-1.5077,-1.5078,-1.5089,-1.5085,-1.5086,-1.5091,-1.5094,-1.5089,-1.5088,-1.5089,-1.509,-1.5103,-1.5103,-1.5103,-1.5103,0,-1.4964,-1.4979,-1.4976,-1.4992,-1.4996,-1.4991,-1.5005,-1.5003,-1.5014,-1.5013,-1.5013,-1.503,-1.5033,-1.5048,-1.5054,-1.5061,-1.5052,-1.5059,-1.5049,-1.505,-1.5038,-1.5038,-1.4996,-1.4991,-1.5038,-1.5038,-1.5037,0,-1.4943,-1.4939,-1.4955,-1.4956,-1.4962,-1.4963,-1.4966,-1.4984,-1.4986,-1.4997,-1.4993,-1.4997,-1.5001,-1.5003,-1.5016,-1.502,-1.5027,-1.5012,-1.5027,-1.5022,-1.5025,-1.5024,-1.5024,-1.5008,-1.5007,-1.5006,-1.5006,0,-1.4904,-1.4912,-1.4915,-1.4921,-1.4924,-1.4929,-1.4936,-1.4936,-1.4956,-1.4957,-1.496,-1.4963,-1.4969,-1.4972,-1.4978,-1.4985,-1.4998,-1.5001,-1.4999,-1.4992,-1.4986,-1.4988,-1.5038,-1.5002,-1.5002,-1.5003,-1.5003,-1.5003,-1.4873,-1.487,-1.4881,-1.4884,-1.4891,-1.4897,-1.4896,-1.4907,-1.4909,-1.4916,-1.4926,-1.4927,-1.4937,-1.4948,-1.4953,-1.4954,-1.4962,-1.4958,-1.4957,-1.4956,-1.4952,-1.4987,-1.4956,-1.4956,-1.4956,-1.4956,-1.4956,0,-1.4834,-1.4842,-1.4845,-1.4853,-1.4856,-1.4869,-1.4877,-1.4878,-1.4879,-1.4887,-1.4891,-1.4893,-1.4897,-1.491,-1.4915,-1.4913,-1.4919,-1.4913,-1.4913,-1.4914,-1.4946,-1.4947,-1.4908,-1.4908,-1.4908,-1.4908,-1.4908,-1.4908,-1.4813,-1.4809,-1.4819,-1.4818,-1.4827,-1.4828,-1.4831,-1.4836,-1.4843,-1.4845,-1.4849,-1.4857,-1.4868,-1.4873,-1.4877,-1.4881,-1.4881,-1.4873,-1.4879,-1.4907,-1.4912,-1.4916,-1.4918,-1.4873,-1.4873,-1.4847,-1.4847,-1.4846]},{"header":{"parameterUnit":"m.s-1","parameterCategory":1,"la1":30.2991,"la2":30.254,"lo1":-89.0895,"lo2":-89.0444,"dy":0.0017,"dx":0.0017,"nx":28,"ny":28,"refTime":"2024-05-06T21:00:00:Z","depth":0,"parameterNumber":3,"parameterNumberName":"V-component_of_WINDS"},"data":[0,0,0,0,0,0,0,0,0,0,0,0,0,0,0,0,0,0,0,0,0,0,0,0,0,0,0,0,0,0,0,0,0,0,0,0,0,0,0,0,0,0,0,0,0,0,0,0,0,0,0,0,0,0,0,0,0,0,5.838,5.8381,0,5.8415,5.8416,5.8416,5.8378,5.8376,5.8375,5.8373,5.8405,5.8408,5.841,0,0,0,0,0,0,0,0,0,0,0,0,0,5.8279,5.8281,5.838,5.8381,5.8381,5.8415,5.8416,5.8416,5.8378,5.8376,5.8374,5.8373,5.8405,5.8407,5.841,0,0,0,0,0,0,0,0,0,0,0,0,0,5.8319,5.8281,5.838,5.8366,5.8366,5.8415,5.8416,5.8416,5.8378,5.8376,5.8374,5.8372,5.8404,5.8407,5.841,5.8474,0,0,5.842,5.8422,0,0,0,0,0,0,0,0,5.8317,5.8323,5.8368,5.8367,5.8367,5.839,5.8391,5.8436,5.8379,5.8373,5.8373,5.8371,5.8402,5.8405,5.8416,5.8476,5.8477,5.8421,5.8423,5.8424,5.8425,0,0,0,0,0,0,0,5.8314,5.8321,5.8394,5.8369,5.8368,5.8358,5.8361,5.84,5.8399,5.8374,5.8371,5.8376,5.8401,5.8413,5.8417,5.8477,5.8421,5.8423,5.8425,5.8427,5.8593,5.8595,0,0,0,0,0,0,5.8313,5.8319,5.8393,5.8395,5.8336,5.8361,5.8365,5.8385,5.8399,5.8399,5.8378,5.8374,5.8409,5.8413,5.8418,5.8495,5.8424,5.8427,5.8429,5.8591,5.8594,5.8596,0,0,0,0,0,0,5.8311,5.832,5.8391,5.8356,5.8365,5.8365,5.8388,5.8386,5.8399,5.8402,5.8401,5.8391,5.8407,5.8413,5.8461,5.8495,5.8429,5.8432,5.8588,5.8592,5.8595,5.8649,0,0,0,0,0,0,5.8308,5.832,5.8344,5.8357,5.8367,5.8435,5.839,5.8389,5.8405,5.84,5.8414,5.8414,5.8406,5.8456,5.8464,5.8499,5.8434,5.8585,5.859,5.8594,5.8644,5.8654,5.8662,0,0,0,0,0,5.8305,5.8356,5.8346,5.8355,5.8398,5.8437,5.8442,5.8433,5.8408,5.8432,5.8435,5.8413,5.8491,5.8462,5.847,5.8506,5.8583,5.8588,5.8593,5.864,5.8652,5.8662,0,0,0,0,0,0,5.8345,5.8358,5.8346,5.8403,5.842,5.8431,5.8461,5.8446,5.8469,5.8463,5.845,5.8454,5.8505,5.851,5.8478,5.857,5.8532,5.854,5.8564,5.8576,5.8585,5.8582,5.8437,0,0,0,0,0,5.8361,5.8393,5.8402,5.8452,5.8461,5.846,5.8477,5.8469,5.8484,5.8491,5.8496,5.8512,5.854,5.8558,5.8584,5.8645,5.8648,5.8674,5.8683,5.869,5.8697,5.8731,5.8743,5.8614,5.8614,5.8614,0,0,5.8393,5.8404,5.8425,5.846,5.8472,5.8505,5.8466,5.8502,5.8526,5.8496,5.8542,5.8547,5.8563,5.8619,5.8644,5.8625,5.8734,5.8697,5.8703,5.8706,5.8738,5.875,5.8761,5.8618,5.8617,5.8617,0,0,5.8469,5.8481,5.8525,5.8538,5.8557,5.8557,5.8568,5.8582,5.8584,5.8631,5.861,5.8638,5.8686,5.8699,5.8712,5.8797,5.8779,5.8806,5.8853,5.8887,5.8897,5.8906,5.8937,5.8949,5.8812,5.8813,5.8813,0,5.8506,5.8557,5.8548,5.8587,5.8604,5.8581,5.8625,5.8638,5.8664,5.8676,5.8655,5.8717,5.8725,5.8785,5.8806,5.8817,5.8829,5.8804,5.8897,5.8906,5.8914,5.8943,5.8955,5.8816,5.8815,5.8815,5.8815,0,5.8602,5.8638,5.8671,5.8699,5.872,5.8761,5.8759,5.878,5.8772,5.8773,5.8822,5.8833,5.8861,5.8875,5.8865,5.8933,5.8921,5.8899,5.8861,5.893,5.8957,5.8968,5.882,5.8819,5.8818,5.8818,0,0,5.8702,5.8729,5.8741,5.8755,5.8776,5.8802,5.8843,5.8873,5.8892,5.8911,5.8945,5.8988,5.8969,5.8983,5.8975,5.9005,5.9073,5.8979,5.8979,5.8997,5.915,5.9167,5.918,5.9062,5.9064,5.9065,5.9149,0,5.878,5.8852,5.8848,5.8916,5.8949,5.8929,5.8964,5.8981,5.8984,5.9012,5.9015,5.9046,5.9018,5.9027,5.9055,5.9059,5.9104,5.9053,5.9093,5.9094,5.909,5.9195,5.9212,5.9291,5.916,5.9162,5.9163,0,5.8879,5.8905,5.8977,5.8996,5.901,5.9042,5.907,5.9097,5.9116,5.9117,5.9135,5.9123,5.9164,5.9126,5.9183,5.9149,5.9165,5.9169,5.9172,5.9175,5.9133,5.9201,5.9315,5.9327,5.918,5.9178,5.9177,0,5.8947,5.8999,5.905,5.9062,5.9084,5.9108,5.9118,5.9135,5.9154,5.9179,5.9191,5.9219,5.9235,5.9257,5.9253,5.9225,5.9311,5.9272,5.9312,5.9313,5.9331,5.933,5.945,5.9341,5.9341,5.9341,5.9341,0,5.9034,5.9079,5.9081,5.9112,5.9162,5.9156,5.9206,5.9213,5.9229,5.9261,5.9245,5.9275,5.9268,5.9297,5.9294,5.9343,5.9349,5.9351,5.935,5.9353,5.9353,5.9363,5.9357,5.9344,5.9343,5.9343,5.9342,0,5.9117,5.912,5.9174,5.9192,5.9198,5.9234,5.9249,5.9279,5.9282,5.9323,5.9332,5.9336,5.9371,5.937,5.9408,5.9406,5.9466,5.9458,5.946,5.9459,5.9499,5.9496,5.963,5.9648,5.9528,5.9529,5.953,0,5.9172,5.9207,5.923,5.9252,5.9264,5.9298,5.9319,5.9315,5.9336,5.9362,5.9389,5.9422,5.9449,5.9505,5.9511,5.9541,5.9534,5.9579,5.9538,5.9541,5.9535,5.9534,5.9537,5.9587,5.9588,5.9589,5.959,0,5.9271,5.9271,5.9302,5.9335,5.936,5.9385,5.9407,5.9425,5.9424,5.9449,5.9486,5.9507,5.9548,5.9581,5.9611,5.962,5.9605,5.9603,5.9614,5.9618,5.9618,5.9619,5.9483,5.96,5.9599,5.9598,5.9598,5.9597,5.9342,5.9373,5.9395,5.9431,5.9448,5.947,5.95,5.9508,5.9539,5.9573,5.9569,5.961,5.9629,5.9667,5.968,5.9712,5.9695,5.9711,5.9715,5.9719,5.9724,5.9613,5.9717,5.9716,5.9716,5.9716,5.9716,0,5.944,5.9455,5.9487,5.9521,5.955,5.9536,5.956,5.9585,5.9622,5.9642,5.967,5.9712,5.9746,5.9756,5.9788,5.9811,5.9805,5.982,5.9818,5.9821,5.9736,5.9724,5.9824,5.9824,5.9824,5.9824,5.9824,5.9824,5.9495,5.9547,5.9551,5.9612,5.9625,5.9667,5.9683,5.9703,5.972,5.9769,5.9798,5.9805,5.9821,5.9855,5.9885,5.9887,5.9899,5.9917,5.9916,5.9837,5.9826,5.9816,5.9804,5.992,5.992,5.9998,5.9999,5.9999]}]]